Location: Oregon Trail
(41.1872°N, 102.0741°W)
Time: 16:54:08
(UTC+00:00)

Cosmos 1816 Rocket - Pass Details

Date: 19 November 2019
Orbit: 952 x 999 km, 82.9° (Epoch: 05 December)

Event Time Altitude Azimuth Distance (km) Brightness Sun altitude
Rises 12:28:45 0° 350° (N) 3,711 7.3 -13.6°
Reaches altitude 10° 12:31:18 10° 348° (NNW) 2,752 6.6 -13.1°
Maximum altitude 12:37:34 70° 266° (W) 1,040 4.5 -12.0°
Drops below altitude 10° 12:43:42 10° 184° (S) 2,701 7.0 -10.9°
Sets 12:46:11 0° 182° (S) 3,638 7.7 -10.4°
